Regional Weather Roundup
Issued by NWS

Home | Current Version | Previous Version | Text Only | Print | Product List | Glossary Off
Versions: 1 2 3 4 5 6 7 8 9 10 11 12 13 14 15 16 17 18 19 20 21 22 23 24 25 26 27 28 29 30 31 32 33 34 35 36 37 38 39 40 41 42 43 44 45 46 47 48 49 50

208
ASUS43 KLSX 082010
RWRMO

WEATHER SUMMARY FOR MISSOURI
NATIONAL WEATHER SERVICE SPRINGFIELD MO
200 PM CST THU DEC 08 2016

NOTE: "FAIR" INDICATES FEW OR NO CLOUDS BELOW 12,000 FEET WITH NO
       SIGNIFICANT WEATHER AND/OR OBSTRUCTIONS TO VISIBILITY.
       CURRENT SKY AND/OR WEATHER CONDITIONS ARE NOT AVAILABLE FOR
       CHILLICOTHE AND FARMINGTON.

MOZ001>031-035>038-043-044-053-054-082100-
...NORTHERN AND WESTERN MISSOURI...

CITY           SKY/WX    TMP DP  RH WIND       PRES   REMARKS
KANSAS CTY INT MOSUNNY   25  10  53 W10G20    30.59F WCI  15
KANSAS C DTWN  SUNNY     26  11  52 W9G18     30.61F WCI  17
LEE`S SUMMIT   SUNNY     24  11  57 NW15      30.59S WCI  11
ST JOSEPH      SUNNY     25   9  50 NW14      30.61S WCI  13
CHILLICOTHE      N/A     26  10  50 W10G18    30.57F WCI  16
KIRKSVILLE     SUNNY     25  10  53 NW17G23   30.50F WCI  12

$$
MOZ066>068-077>081-088>096-101>105-082100-
...SOUTHWEST MISSOURI...

CITY           SKY/WX    TMP DP  RH WIND       PRES   REMARKS
SPRINGFIELD    SUNNY     29  12  49 W12       30.55S WCI  19
JOPLIN         SUNNY     28  13  53 NW9G17    30.62F WCI  19
BRANSON        PTSUNNY   28   9  43 NW12G18   30.55S WCI  18

$$
MOZ032>034-039>042-045>050-055>058-069>072-082100-
...CENTRAL MISSOURI...

CITY           SKY/WX    TMP DP  RH WIND       PRES   REMARKS
COLUMBIA       SUNNY     27  11  51 W17       30.52F WCI  14
JEFFERSON CITY SUNNY     27  11  51 NW13G21   30.55S WCI  16
ROLLA          SUNNY     28  13  53 W13       30.48F WCI  17
SEDALIA        MOSUNNY   26  13  57 NW14G22   30.57S WCI  14
WHITEMAN AFB   MOSUNNY   26  12  54 NW13      30.56F WCI  15
WARRENSBURG    SUNNY     27  12  54 W10G16    30.59S WCI  17
OSAGE BEACH    SUNNY     32  15  49 W9        30.54F WCI  24

$$
MOZ051-052-059>065-082100-
...EAST CENTRAL MISSOURI...

CITY           SKY/WX    TMP DP  RH WIND       PRES   REMARKS
ST LOUIS INTL  MOSUNNY   30  11  45 W18G26    30.48F WCI  18
SPIRIT OF STL  MOSUNNY   30  13  49 NW14      30.49F WCI  19
ST CHARLES     SUNNY     28  13  53 NW17      30.49S WCI  16

$$
MOZ072>076-082>087-097>100-106>115-082100-
...SOUTH CENTRAL AND SOUTHEAST MISSOURI...

CITY           SKY/WX    TMP DP  RH WIND       PRES   REMARKS
CAPE GIRARDEAU SUNNY     35  14  42 NW14      30.47F WCI  26
FARMINGTON     SUNNY     31  14  49 NW13      30.46S WCI  21
POPLAR BLUFF   SUNNY     36  12  37 NW16      30.49F WCI  26
WEST PLAINS    SUNNY     32  10  40 NW12G22   30.50F WCI  23

$$




USA.gov is the U.S. government's official web portal to all federal, state and local government web resources and services.